Weather History for Dubuque, IA

Change the Weather History Date:

Sunday, March 3, 2013

  Actual Average Record
Temperature  
Mean Temperature 15 °F 30 °F  
Max Temperature 28 °F 38 °F 68 °F (1983)
Min Temperature 1 °F 22 °F -11 °F (2014)
Degree Days  
Heating Degree Days 50 35  
Month to date heating degree days 143 107  
Since 1 July heating degree days 5393 5500  
Cooling Degree Days 0 0  
Month to date cooling degree days 0 0  
Year to date cooling degree days 0 0  
Moisture  
Dew Point 8 °F    
Average Humidity 67    
Maximum Humidity 91    
Minimum Humidity 42    
Precipitation  
Precipitation 0.00 in 0.07 in 0.87 in (1970)
Month to date precipitation T 0.20  
Year to date precipitation 3.42 2.81  
Snow  
Snow 0.00 in 0.20 in - ()
Month to date snowfall T 0.7  
Since 1 July snowfall 41.9 34.3  
Snow Depth 5.00 in    
Sea Level Pressure  
Sea Level Pressure 30.14 in    
Wind  
Wind Speed 4 mph (SE)    
Max Wind Speed 12 mph    
Max Gust Speed 14 mph    
Visibility 10 miles    
Events      
T = Trace of Precipitation, MM = Missing Value Source: NWS Daily Summary

Daily Weather History Graph

Daily Weather History Graph

Search for Another Location

Airport:

Trip Planner

Search our weather history database for the weather conditions in past years. The results will help you decide how hot, cold, wet, or windy it might be!

Date:

Astronomy

Mar. 03, 2013 Rise Set
Actual Time 6:34 AM CST 5:55 PM CST
Civil Twilight 6:06 AM CST 6:23 PM CST
Nautical Twilight 5:33 AM CST 6:56 PM CST
Astronomical Twilight 5:01 AM CST 7:28 PM CST
Moon No Moon Rise 9:41 AM CST (3/3)
Length of Visible Light 12h 17m
Length of Day
11h 20m
Waning Gibbous, 63% of the Moon is Illuminated
Mar 3
Waning Gibbous
Mar 4
Last Quarter
Mar 11
New
Mar 19
First Quarter
Mar 27
Full

Hourly Weather History & Observations

Time (CST) Temp. Windchill Dew Point Humidity Pressure Visibility Wind Dir Wind Speed Gust Speed Precip Events Conditions
12:53 AM 6.1 °F - 1.9 °F 83% 30.21 in 10.0 mi Calm Calm - N/A   Clear
1:53 AM 6.1 °F - 1.9 °F 83% 30.21 in 10.0 mi Calm Calm - N/A   Clear
2:53 AM 3.9 °F - -0.9 °F 80% 30.18 in 10.0 mi Calm Calm - N/A   Clear
3:53 AM 3.9 °F - 1.0 °F 88% 30.17 in 10.0 mi Calm Calm - N/A   Clear
4:53 AM 5.0 °F - 1.0 °F 84% 30.18 in 10.0 mi Calm Calm - N/A   Clear
5:53 AM 5.0 °F - 1.4 °F 85% 30.12 in 10.0 mi Calm Calm - N/A   Clear
6:53 AM 8.1 °F - 3.9 °F 83% 30.18 in 10.0 mi Calm Calm - N/A   Clear
7:53 AM 12.0 °F - 7.0 °F 80% 30.19 in 10.0 mi Calm Calm - N/A   Clear
8:53 AM 19.9 °F 13.4 °F 8.1 °F 60% 30.19 in 10.0 mi NE 4.6 mph - N/A   Mostly Cloudy
9:53 AM 23.0 °F - 10.0 °F 58% 30.18 in 10.0 mi Calm Calm - N/A   Clear
10:53 AM 25.0 °F 20.7 °F 10.0 °F 53% 30.17 in 10.0 mi ESE 3.5 mph - N/A   Clear
11:53 AM 27.0 °F 20.5 °F 8.1 °F 45% 30.16 in 10.0 mi SE 5.8 mph - N/A   Clear
12:53 PM 27.0 °F 19.5 °F 10.0 °F 49% 30.14 in 10.0 mi South 6.9 mph - N/A   Clear
1:53 PM 28.0 °F 22.8 °F 9.0 °F 45% 30.12 in 10.0 mi South 4.6 mph - N/A   Clear
2:53 PM 28.0 °F 21.7 °F 10.0 °F 47% 30.11 in 10.0 mi South 5.8 mph - N/A   Clear
3:53 PM 28.4 °F 21.2 °F 12.2 °F 51% 30.04 in 10.0 mi South 6.9 mph - N/A   Clear
4:53 PM 27.0 °F 19.5 °F 12.0 °F 53% 30.09 in 10.0 mi SSE 6.9 mph - N/A   Clear
5:53 PM 21.9 °F 12.5 °F 12.0 °F 66% 30.10 in 10.0 mi South 8.1 mph - N/A   Clear
6:53 PM 19.0 °F 11.1 °F 10.0 °F 68% 30.11 in 10.0 mi SSE 5.8 mph - N/A   Clear
7:53 PM 19.9 °F 11.1 °F 10.9 °F 68% 30.10 in 10.0 mi SE 6.9 mph - N/A   Clear
8:53 PM 19.0 °F 11.1 °F 10.0 °F 68% 30.10 in 10.0 mi ESE 5.8 mph - N/A   Clear
9:53 PM 21.0 °F 13.4 °F 12.0 °F 68% 30.10 in 10.0 mi ESE 5.8 mph - N/A   Clear
10:53 PM 21.9 °F 11.7 °F 12.0 °F 66% 30.09 in 10.0 mi ESE 9.2 mph - N/A   Clear
11:53 PM 21.9 °F 11.0 °F 10.0 °F 60% 30.09 in 10.0 mi SE 10.4 mph - N/A   Clear